{"data":{"norad_id":67039,"intl_designator":"2025-294K","name":"STARLINK-35705","alt_names":[],"object_type":"PAYLOAD","status":"ACTIVE","operator":null,"country":"US","launch_date":"2025-12-11","launch_site_code":"AFETR","launch_vehicle":null,"mission":null,"orbit_class":"UNKNOWN","rcs_meters":null,"size_class":null,"mass_kg":null,"dimensions":null,"purposes":["comms"],"wikipedia_slug":null,"has_3d_model":false,"image_url":null,"decayed_at":null,"tle_current":{"epoch":"2026-09-20T08:42:30.037824Z","epoch_age_seconds":93557,"freshness":"FRESH","line1":"1 67039U 25294K   26263.36284766  .00010340  00000+0  38468-3 0  9997","line2":"2 67039  43.0007  18.5161 0001269 273.8498  86.2208 15.27584146 44571","mean_motion":15.27584146,"eccentricity":0.0001269,"inclination_deg":43.0007,"raan_deg":18.5161,"arg_perigee_deg":273.8498,"mean_anomaly_deg":86.2208,"bstar":0.00038468,"rev_number":4457,"period_min":94.266492865264,"perigee_km":482.16599851204,"apogee_km":483.90736439239,"semimajor_km":6861.1736814522,"source":"CELESTRAK","updated_at":"2026-09-21T09:00:36.092849Z"}}}